Location: Albany
(42.6526°N, 73.7562°W)
Time: 11:18:58
(UTC+00:00)

NOSS 3-1 (C) - Pass Details

Date: 19 November 2019
Orbit: 765 x 1444 km, 63.4° (Epoch: 02 December)

Event Time Altitude Azimuth Distance (km) Brightness Sun altitude
Rises 22:19:37 0° 234° (SW) 3,289 7.9 -9.4°
Reaches altitude 10° 22:21:59 10° 240° (WSW) 2,411 7.1 -9.8°
Maximum altitude 22:27:19 48° 315° (NW) 1,161 4.2 -10.8°
Drops below altitude 10° 22:33:30 10° 29° (NNE) 2,787 5.5 -11.9°
Enters shadow 22:34:56 - 32° (NNE) 3,302 5.8 -12.1°
